Time,TemperatureF,DewpointF,PressureIn,WindDirection,WindDirectionDegrees,WindSpeedMPH,WindSpeedGustMPH,Humidity,HourlyPrecipIn,Conditions,Clouds,dailyrainin,SolarRadiationWatts/m^2,SoftwareType,DateUTC
2013-02-14 00:00:00,32.9,31.6,29.75,NNW,342,0.0,0.0,95,0.00,OVC,,0.08,0.0,WeatherDisplay:10.37,2013-02-14 05:00:00,
2013-02-14 00:01:00,32.9,31.6,29.75,NNW,342,0.0,0.0,95,0.00,RA,,0.00,0.0,WeatherDisplay:10.37,2013-02-14 05:01:00,
2013-02-14 00:06:00,32.9,31.6,29.75,NNW,342,0.0,0.0,95,0.00,RA,,0.00,0.0,WeatherDisplay:10.37,2013-02-14 05:06:00,
2013-02-14 00:11:00,32.8,31.8,29.75,NNW,342,0.0,0.0,96,0.00,OVC,,0.00,0.0,WeatherDisplay:10.37,2013-02-14 05:11:00,
2013-02-14 00:16:00,32.8,31.8,29.76,NNW,342,0.0,0.0,96,0.00,OVC,,0.00,0.0,WeatherDisplay:10.37,2013-02-14 05:16:00,
2013-02-14 00:21:00,32.8,31.8,29.76,NNW,342,0.0,0.0,96,0.00,OVC,,0.00,0.0,WeatherDisplay:10.37,2013-02-14 05:21:00,
2013-02-14 00:26:00,32.7,31.7,29.76,NNW,342,0.0,0.0,96,0.00,OVC,,0.00,0.0,WeatherDisplay:10.37,2013-02-14 05:26:00,
2013-02-14 00:31:00,32.7,31.7,29.77,NNW,342,0.0,0.0,96,0.00,OVC,,0.00,0.0,WeatherDisplay:10.37,2013-02-14 05:31:00,
2013-02-14 00:36:00,32.7,31.7,29.77,NNW,342,0.0,0.0,96,0.00,OVC,,0.00,0.0,WeatherDisplay:10.37,2013-02-14 05:36:00,
2013-02-14 00:41:00,32.7,31.7,29.77,NNW,342,0.0,0.0,96,0.00,OVC,,0.00,0.0,WeatherDisplay:10.37,2013-02-14 05:41:00,
2013-02-14 00:46:00,32.7,31.7,29.77,NNW,342,0.0,0.0,96,0.00,OVC,,0.00,0.0,WeatherDisplay:10.37,2013-02-14 05:46:00,
2013-02-14 00:51:00,32.7,31.7,29.78,NNW,342,0.0,0.0,96,0.00,OVC,,0.00,0.0,WeatherDisplay:10.37,2013-02-14 05:51:00,
2013-02-14 00:56:00,32.8,31.8,29.78,NNW,342,0.0,0.0,96,0.00,OVC,,0.00,0.0,WeatherDisplay:10.37,2013-02-14 05:56:00,
2013-02-14 01:01:00,32.8,31.8,29.78,NNW,342,0.0,0.0,96,0.00,OVC,,0.00,0.0,WeatherDisplay:10.37,2013-02-14 06:01:00,
2013-02-14 01:06:00,32.9,31.9,29.78,NNW,342,0.0,0.0,96,0.00,OVC,,0.00,0.0,WeatherDisplay:10.37,2013-02-14 06:06:00,
2013-02-14 01:11:00,32.9,31.9,29.79,NNW,342,0.0,0.0,96,0.00,OVC,,0.00,0.0,WeatherDisplay:10.37,2013-02-14 06:11:00,
2013-02-14 01:16:00,33.1,32.1,29.79,NNW,342,0.0,0.0,96,0.00,SCT,,0.00,0.0,WeatherDisplay:10.37,2013-02-14 06:16:00,
2013-02-14 01:21:00,33.1,32.1,29.80,NNW,342,0.0,0.0,96,0.00,SCT,,0.00,0.0,WeatherDisplay:10.37,2013-02-14 06:21:00,
2013-02-14 01:26:00,33.1,32.1,29.80,NNW,342,0.0,0.0,96,0.00,SCT,,0.00,0.0,WeatherDisplay:10.37,2013-02-14 06:26:00,
2013-02-14 01:31:00,33.1,32.1,29.79,NNW,342,0.1,0.0,96,0.00,SCT,,0.00,0.0,WeatherDisplay:10.37,2013-02-14 06:31:00,
2013-02-14 01:36:00,33.1,32.1,29.79,NNW,342,0.0,0.0,96,0.00,SCT,,0.00,0.0,WeatherDisplay:10.37,2013-02-14 06:36:00,
2013-02-14 01:41:00,33.2,32.4,29.80,NNW,342,0.0,0.0,97,0.00,SCT,,0.00,0.0,WeatherDisplay:10.37,2013-02-14 06:41:00,
2013-02-14 01:46:00,33.2,32.4,29.80,NNW,342,0.0,0.0,97,0.00,SCT,,0.00,0.0,WeatherDisplay:10.37,2013-02-14 06:46:00,
2013-02-14 01:51:00,33.2,33.0,29.80,NNW,342,0.0,0.0,99,0.00,SCT,,0.00,0.0,WeatherDisplay:10.37,2013-02-14 06:51:00,
2013-02-14 01:56:00,33.4,33.1,29.80,NNW,342,0.0,0.0,99,0.00,SCT,,0.00,0.0,WeatherDisplay:10.37,2013-02-14 06:56:00,
2013-02-14 02:01:00,33.4,33.1,29.80,NNW,342,0.0,0.0,99,0.00,SCT,,0.00,0.0,WeatherDisplay:10.37,2013-02-14 07:01:00,
2013-02-14 02:06:00,33.4,33.1,29.80,NNW,342,0.0,0.0,99,0.00,BKN,,0.00,0.0,WeatherDisplay:10.37,2013-02-14 07:06:00,
2013-02-14 02:11:00,33.4,33.1,29.80,NNW,342,0.0,0.0,99,0.00,BKN,,0.00,0.0,WeatherDisplay:10.37,2013-02-14 07:11:00,
2013-02-14 02:16:00,33.2,33.0,29.81,NNW,342,0.0,0.0,99,0.00,BKN,,0.00,0.0,WeatherDisplay:10.37,2013-02-14 07:16:00,
2013-02-14 02:21:00,33.2,33.0,29.81,NNW,342,0.0,0.0,99,0.00,BKN,,0.00,0.0,WeatherDisplay:10.37,2013-02-14 07:21:00,
2013-02-14 02:26:00,33.2,33.0,29.81,NNW,342,0.0,0.0,99,0.00,BKN,,0.00,0.0,WeatherDisplay:10.37,2013-02-14 07:26:00,
2013-02-14 02:31:00,33.2,33.0,29.82,NNW,342,0.0,0.0,99,0.00,BKN,,0.00,0.0,WeatherDisplay:10.37,2013-02-14 07:31:00,
2013-02-14 02:36:00,33.4,33.4,29.82,NNW,342,0.0,0.0,100,0.00,BKN,,0.00,0.0,WeatherDisplay:10.37,2013-02-14 07:36:00,
2013-02-14 02:41:00,33.4,33.4,29.82,NNW,342,0.0,0.0,100,0.00,BKN,,0.00,0.0,WeatherDisplay:10.37,2013-02-14 07:41:00,
2013-02-14 02:46:00,33.4,33.4,29.82,NNW,342,0.0,0.0,100,0.00,BKN,,0.00,0.0,WeatherDisplay:10.37,2013-02-14 07:46:00,
2013-02-14 02:51:00,33.5,33.5,29.82,NNW,342,0.0,0.0,100,0.00,BKN,,0.00,0.0,WeatherDisplay:10.37,2013-02-14 07:51:00,
2013-02-14 02:56:00,33.5,33.5,29.82,NNW,342,0.0,0.0,100,0.00,BKN,,0.00,0.0,WeatherDisplay:10.37,2013-02-14 07:56:00,
2013-02-14 03:01:00,33.5,33.5,29.82,NNW,342,0.0,0.0,100,0.00,BKN,,0.00,0.0,WeatherDisplay:10.37,2013-02-14 08:01:00,
2013-02-14 03:06:00,33.4,33.4,29.82,NNW,342,0.0,0.0,100,0.00,BKN,,0.00,0.0,WeatherDisplay:10.37,2013-02-14 08:06:00,
2013-02-14 03:11:00,33.5,33.5,29.83,NNW,342,0.0,0.0,100,0.00,BKN,,0.00,0.0,WeatherDisplay:10.37,2013-02-14 08:11:00,
2013-02-14 03:16:00,33.4,33.4,29.82,NNW,342,0.0,0.0,100,0.00,BKN,,0.00,0.0,WeatherDisplay:10.37,2013-02-14 08:16:00,
2013-02-14 03:21:00,33.4,33.4,29.83,NNW,342,0.0,1.1,100,0.00,BKN,,0.00,0.0,WeatherDisplay:10.37,2013-02-14 08:21:00,
2013-02-14 03:26:00,33.2,33.2,29.83,NNW,342,0.0,0.0,100,0.00,BKN,,0.00,0.0,WeatherDisplay:10.37,2013-02-14 08:26:00,
2013-02-14 03:31:00,33.2,33.2,29.83,NNW,342,0.0,0.0,100,0.00,BKN,,0.00,0.0,WeatherDisplay:10.37,2013-02-14 08:31:00,
2013-02-14 03:36:00,33.1,33.1,29.83,NNW,342,0.0,0.0,100,0.00,BKN,,0.00,0.0,WeatherDisplay:10.37,2013-02-14 08:36:00,
2013-02-14 03:41:00,33.1,33.1,29.84,NNW,342,0.0,0.0,100,0.00,BKN,,0.00,0.0,WeatherDisplay:10.37,2013-02-14 08:41:00,
2013-02-14 03:46:00,33.1,33.1,29.84,NNW,342,0.0,0.0,100,0.00,BKN,,0.00,0.0,WeatherDisplay:10.37,2013-02-14 08:46:00,
2013-02-14 03:51:00,33.1,33.1,29.85,NNW,342,0.0,0.0,100,0.00,BKN,,0.00,0.0,WeatherDisplay:10.37,2013-02-14 08:51:00,
2013-02-14 03:56:00,33.1,33.1,29.85,NNW,342,0.0,0.0,100,0.00,BKN,,0.00,0.0,WeatherDisplay:10.37,2013-02-14 08:56:00,
2013-02-14 04:01:00,33.1,33.1,29.85,NNW,342,0.0,0.0,100,0.00,BKN,,0.00,0.0,WeatherDisplay:10.37,2013-02-14 09:01:00,
2013-02-14 04:06:00,32.9,32.9,29.86,NNW,342,0.0,0.0,100,0.00,BKN,,0.00,0.0,WeatherDisplay:10.37,2013-02-14 09:06:00,
2013-02-14 04:11:00,32.9,32.9,29.86,NNW,342,0.0,0.0,100,0.00,BKN,,0.00,0.0,WeatherDisplay:10.37,2013-02-14 09:11:00,
2013-02-14 04:16:00,32.7,32.7,29.86,NNW,342,0.0,0.0,100,0.00,BKN,,0.00,0.0,WeatherDisplay:10.37,2013-02-14 09:16:00,
2013-02-14 04:21:00,32.5,32.3,29.86,NNW,342,0.1,1.5,99,0.00,BKN,,0.00,0.0,WeatherDisplay:10.37,2013-02-14 09:21:00,
2013-02-14 04:26:00,32.5,32.3,29.87,NNW,342,0.0,0.0,99,0.00,BKN,,0.00,0.0,WeatherDisplay:10.37,2013-02-14 09:26:00,
2013-02-14 04:31:00,32.5,32.3,29.87,NNW,343,0.0,1.1,99,0.00,BKN,,0.00,0.0,WeatherDisplay:10.37,2013-02-14 09:31:00,
2013-02-14 04:36:00,32.7,32.5,29.87,NNW,343,0.0,0.0,99,0.00,BKN,,0.00,0.0,WeatherDisplay:10.37,2013-02-14 09:36:00,
2013-02-14 04:41:00,32.5,32.3,29.88,NNW,343,0.0,0.0,99,0.00,BKN,,0.00,0.0,WeatherDisplay:10.37,2013-02-14 09:41:00,
2013-02-14 04:46:00,32.4,32.2,29.88,NNW,343,0.2,1.5,99,0.00,BKN,,0.00,0.0,WeatherDisplay:10.37,2013-02-14 09:46:00,
2013-02-14 04:51:00,32.2,32.0,29.88,NNW,343,0.5,1.5,99,0.00,BKN,,0.00,0.0,WeatherDisplay:10.37,2013-02-14 09:51:00,
2013-02-14 04:56:00,32.1,31.6,29.88,NNW,343,0.8,3.5,98,0.00,BKN,,0.00,0.0,WeatherDisplay:10.37,2013-02-14 09:56:00,
2013-02-14 05:01:00,32.1,31.6,29.88,NNW,344,0.0,1.1,98,0.00,FEW,,0.00,0.0,WeatherDisplay:10.37,2013-02-14 10:01:00,
2013-02-14 05:06:00,31.9,31.1,29.88,NNW,342,0.0,3.5,97,0.00,FEW,,0.00,0.0,WeatherDisplay:10.37,2013-02-14 10:06:00,
2013-02-14 05:11:00,31.9,30.6,29.88,NNW,341,0.0,3.5,95,0.00,FEW,,0.00,0.0,WeatherDisplay:10.37,2013-02-14 10:11:00,
2013-02-14 05:16:00,32.1,30.0,29.89,NNW,341,0.0,0.0,92,0.00,FEW,,0.00,0.0,WeatherDisplay:10.37,2013-02-14 10:16:00,
2013-02-14 05:21:00,31.9,29.6,29.90,NNW,340,0.0,1.5,91,0.00,FEW,,0.00,0.0,WeatherDisplay:10.37,2013-02-14 10:21:00,
2013-02-14 05:26:00,31.8,29.2,29.90,NNW,340,0.0,0.0,90,0.00,FEW,,0.00,0.0,WeatherDisplay:10.37,2013-02-14 10:26:00,
2013-02-14 05:31:00,31.5,28.6,29.90,NNW,335,2.5,5.8,89,0.00,FEW,,0.00,0.0,WeatherDisplay:10.37,2013-02-14 10:31:00,
2013-02-14 05:36:00,31.3,28.4,29.90,NNW,335,0.0,0.0,89,0.00,FEW,,0.00,0.0,WeatherDisplay:10.37,2013-02-14 10:36:00,
2013-02-14 05:41:00,31.0,27.9,29.90,NNW,334,1.9,3.5,88,0.00,FEW,,0.00,0.0,WeatherDisplay:10.37,2013-02-14 10:41:00,
2013-02-14 05:46:00,31.0,27.9,29.90,NNW,334,0.4,3.5,88,0.00,FEW,,0.00,0.0,WeatherDisplay:10.37,2013-02-14 10:46:00,
2013-02-14 05:51:00,30.7,27.3,29.90,NNW,334,0.3,1.5,87,0.00,FEW,,0.00,0.0,WeatherDisplay:10.37,2013-02-14 10:51:00,
2013-02-14 05:56:00,30.7,27.3,29.90,NNW,334,0.0,0.0,87,0.00,FEW,,0.00,0.0,WeatherDisplay:10.37,2013-02-14 10:56:00,
2013-02-14 06:01:00,30.4,27.0,29.91,NNW,338,0.2,1.5,87,0.00,FEW,,0.00,0.0,WeatherDisplay:10.37,2013-02-14 11:01:00,
2013-02-14 06:06:00,30.0,26.6,29.91,NNW,346,0.0,1.5,87,0.00,FEW,,0.00,0.0,WeatherDisplay:10.37,2013-02-14 11:06:00,
2013-02-14 06:11:00,30.0,26.6,29.91,ESE,115,6.2,6.2,87,0.00,FEW,,0.00,0.0,WeatherDisplay:10.37,2013-02-14 11:11:00,
2013-02-14 06:16:00,30.7,27.6,29.91,ESE,122,0.7,4.6,88,0.00,CLR,,0.00,0.0,WeatherDisplay:10.37,2013-02-14 11:16:00,
2013-02-14 06:21:00,30.9,27.5,29.92,ESE,119,1.4,4.5,87,0.00,CLR,,0.00,0.0,WeatherDisplay:10.37,2013-02-14 11:21:00,
2013-02-14 06:26:00,31.0,27.3,29.92,NE,41,0.0,0.0,86,0.00,CLR,,0.00,0.0,WeatherDisplay:10.37,2013-02-14 11:26:00,
2013-02-14 06:31:00,30.6,26.6,29.92,NE,41,0.0,0.0,85,0.00,CLR,,0.00,0.0,WeatherDisplay:10.37,2013-02-14 11:31:00,
2013-02-14 06:36:00,30.1,26.1,29.92,NE,41,0.0,0.0,85,0.00,CLR,,0.00,0.0,WeatherDisplay:10.37,2013-02-14 11:36:00,
2013-02-14 06:41:00,29.1,24.9,29.92,NE,41,0.0,0.0,84,0.00,CLR,,0.00,0.0,WeatherDisplay:10.37,2013-02-14 11:41:00,
2013-02-14 06:46:00,28.2,24.3,29.93,NE,41,0.0,0.0,85,0.00,CLR,,0.00,0.0,WeatherDisplay:10.37,2013-02-14 11:46:00,
2013-02-14 06:51:00,27.6,23.7,29.93,NE,41,0.0,1.1,85,0.00,CLR,,0.00,0.0,WeatherDisplay:10.37,2013-02-14 11:51:00,
2013-02-14 06:56:00,27.8,24.2,29.93,NE,41,0.1,1.1,86,0.00,CLR,,0.00,0.0,WeatherDisplay:10.37,2013-02-14 11:56:00,
2013-02-14 07:01:00,28.1,24.5,29.93,NE,41,0.0,0.0,86,0.00,CLR,,0.00,0.0,WeatherDisplay:10.37,2013-02-14 12:01:00,
2013-02-14 07:06:00,28.4,25.0,29.93,NE,41,0.0,0.0,87,0.00,CLR,,0.00,5.0,WeatherDisplay:10.37,2013-02-14 12:06:00,
2013-02-14 07:11:00,28.4,25.0,29.93,NE,44,3.2,4.6,87,0.00,CLR,,0.00,9.0,WeatherDisplay:10.37,2013-02-14 12:11:00,
2013-02-14 07:16:00,28.7,25.6,29.93,NE,45,5.6,6.0,88,0.00,CLR,,0.00,12.0,WeatherDisplay:10.37,2013-02-14 12:16:00,
2013-02-14 07:21:00,28.2,24.8,29.94,NE,45,0.0,3.5,87,0.00,CLR,,0.00,16.0,WeatherDisplay:10.37,2013-02-14 12:21:00,
2013-02-14 07:26:00,28.4,25.3,29.94,NE,45,2.6,3.5,88,0.00,CLR,,0.00,21.0,WeatherDisplay:10.37,2013-02-14 12:26:00,
2013-02-14 07:31:00,28.5,25.4,29.95,NE,45,0.0,0.0,88,0.00,CLR,,0.00,25.0,WeatherDisplay:10.37,2013-02-14 12:31:00,
2013-02-14 07:36:00,28.4,25.3,29.95,NE,45,0.0,0.0,88,0.00,CLR,,0.00,39.0,WeatherDisplay:10.37,2013-02-14 12:36:00,
2013-02-14 07:41:00,28.2,25.1,29.95,NE,45,0.0,0.0,88,0.00,CLR,,0.00,54.0,WeatherDisplay:10.37,2013-02-14 12:41:00,
2013-02-14 07:46:00,28.2,25.1,29.95,NE,45,0.0,0.0,88,0.00,CLR,,0.00,67.0,WeatherDisplay:10.37,2013-02-14 12:46:00,
2013-02-14 07:51:00,28.5,25.7,29.95,NE,45,0.0,0.0,89,0.00,CLR,,0.00,93.0,WeatherDisplay:10.37,2013-02-14 12:51:00,
2013-02-14 07:56:00,28.7,25.9,29.95,NE,44,1.6,3.5,89,0.00,CLR,,0.00,114.0,WeatherDisplay:10.37,2013-02-14 12:56:00,
2013-02-14 08:01:00,29.7,27.1,29.95,WNW,301,7.9,9.2,90,0.00,CLR,,0.00,132.0,WeatherDisplay:10.37,2013-02-14 13:01:00,
2013-02-14 08:06:00,31.2,28.1,29.95,WNW,301,5.4,6.0,88,0.00,CLR,,0.00,148.0,WeatherDisplay:10.37,2013-02-14 13:06:00,
2013-02-14 08:11:00,32.4,28.1,29.95,WNW,296,5.2,8.1,84,0.00,FEW,,0.00,167.0,WeatherDisplay:10.37,2013-02-14 13:11:00,
2013-02-14 08:16:00,32.9,28.0,29.95,WNW,296,0.0,0.0,82,0.00,FEW,,0.00,185.0,WeatherDisplay:10.37,2013-02-14 13:16:00,
2013-02-14 08:21:00,33.5,28.0,29.96,WNW,296,0.0,0.0,80,0.00,FEW,,0.00,200.0,WeatherDisplay:10.37,2013-02-14 13:21:00,
2013-02-14 08:26:00,34.6,28.8,29.96,WNW,296,1.5,5.8,79,0.00,FEW,,0.00,214.0,WeatherDisplay:10.37,2013-02-14 13:26:00,
2013-02-14 08:31:00,35.2,28.7,29.96,WNW,296,0.0,0.0,77,0.00,FEW,,0.00,229.0,WeatherDisplay:10.37,2013-02-14 13:31:00,
2013-02-14 08:36:00,35.3,28.2,29.96,WNW,296,0.2,3.5,75,0.00,FEW,,0.00,239.0,WeatherDisplay:10.37,2013-02-14 13:36:00,
2013-02-14 08:41:00,35.5,28.0,29.96,WNW,296,1.4,3.0,74,0.00,FEW,,0.00,229.0,WeatherDisplay:10.37,2013-02-14 13:41:00,
2013-02-14 08:46:00,35.9,28.1,29.96,WNW,296,0.0,0.0,73,0.00,FEW,,0.00,216.0,WeatherDisplay:10.37,2013-02-14 13:46:00,
2013-02-14 08:51:00,36.2,28.0,29.96,WNW,296,0.0,0.0,72,0.00,FEW,,0.00,221.0,WeatherDisplay:10.37,2013-02-14 13:51:00,
2013-02-14 08:56:00,36.5,28.3,29.96,WNW,296,0.0,0.0,72,0.00,FEW,,0.00,188.0,WeatherDisplay:10.37,2013-02-14 13:56:00,
2013-02-14 09:01:00,36.5,27.6,29.96,WNW,296,0.0,0.0,70,0.00,FEW,,0.00,190.0,WeatherDisplay:10.37,2013-02-14 14:01:00,
2013-02-14 09:06:00,36.8,27.6,29.97,WNW,296,0.0,0.0,69,0.00,FEW,,0.00,325.0,WeatherDisplay:10.37,2013-02-14 14:06:00,
2013-02-14 09:11:00,36.8,27.6,29.97,WNW,296,0.6,1.5,69,0.00,CLR,,0.00,308.0,WeatherDisplay:10.37,2013-02-14 14:11:00,
2013-02-14 09:16:00,36.6,27.4,29.97,WNW,296,0.8,1.5,69,0.00,CLR,,0.00,355.0,WeatherDisplay:10.37,2013-02-14 14:16:00,
2013-02-14 09:21:00,36.6,27.4,29.98,WNW,296,0.0,0.0,69,0.00,CLR,,0.00,367.0,WeatherDisplay:10.37,2013-02-14 14:21:00,
2013-02-14 09:26:00,36.8,27.6,29.98,WNW,297,0.5,3.0,69,0.00,CLR,,0.00,380.0,WeatherDisplay:10.37,2013-02-14 14:26:00,
2013-02-14 09:31:00,36.9,27.3,29.98,West,268,4.0,6.0,68,0.00,CLR,,0.00,392.0,WeatherDisplay:10.37,2013-02-14 14:31:00,
2013-02-14 09:36:00,37.0,27.4,29.98,West,268,0.2,1.5,68,0.00,CLR,,0.00,404.0,WeatherDisplay:10.37,2013-02-14 14:36:00,
2013-02-14 09:41:00,37.8,28.2,29.98,WSW,250,1.8,6.0,68,0.00,CLR,,0.00,415.0,WeatherDisplay:10.37,2013-02-14 14:41:00,
2013-02-14 09:46:00,37.8,27.1,29.97,West,262,3.6,4.6,65,0.00,CLR,,0.00,424.0,WeatherDisplay:10.37,2013-02-14 14:46:00,
2013-02-14 09:51:00,37.9,28.3,29.97,WNW,297,0.5,3.5,68,0.00,CLR,,0.00,432.0,WeatherDisplay:10.37,2013-02-14 14:51:00,
2013-02-14 09:56:00,38.2,28.2,29.97,WNW,294,3.5,6.0,67,0.00,CLR,,0.00,445.0,WeatherDisplay:10.37,2013-02-14 14:56:00,
2013-02-14 10:01:00,38.5,28.1,29.97,WNW,294,3.4,4.6,66,0.00,CLR,,0.00,450.0,WeatherDisplay:10.37,2013-02-14 15:01:00,
2013-02-14 10:06:00,38.6,27.8,29.97,West,273,7.3,8.1,65,0.00,CLR,,0.00,468.0,WeatherDisplay:10.37,2013-02-14 15:06:00,
2013-02-14 10:11:00,38.5,27.4,29.98,NW,322,1.0,5.8,64,0.00,FEW,,0.00,476.0,WeatherDisplay:10.37,2013-02-14 15:11:00,
2013-02-14 10:16:00,39.1,28.7,29.97,WSW,254,6.9,8.1,66,0.00,FEW,,0.00,489.0,WeatherDisplay:10.37,2013-02-14 15:16:00,
2013-02-14 10:21:00,38.8,27.7,29.97,WSW,253,2.5,5.8,64,0.00,FEW,,0.00,496.0,WeatherDisplay:10.37,2013-02-14 15:21:00,
2013-02-14 10:26:00,38.9,28.1,29.97,SW,223,5.8,6.0,65,0.00,FEW,,0.00,504.0,WeatherDisplay:10.37,2013-02-14 15:26:00,
2013-02-14 10:31:00,39.2,28.4,29.97,WSW,238,0.0,3.5,65,0.00,FEW,,0.00,512.0,WeatherDisplay:10.37,2013-02-14 15:31:00,
2013-02-14 10:36:00,39.8,29.0,29.97,WNW,293,1.0,3.5,65,0.00,FEW,,0.00,526.0,WeatherDisplay:10.37,2013-02-14 15:36:00,
2013-02-14 10:41:00,40.1,28.5,29.97,SW,226,1.4,4.5,63,0.00,FEW,,0.00,534.0,WeatherDisplay:10.37,2013-02-14 15:41:00,
2013-02-14 10:46:00,40.3,28.7,29.97,NW,311,3.2,4.6,63,0.00,FEW,,0.00,545.0,WeatherDisplay:10.37,2013-02-14 15:46:00,
2013-02-14 10:51:00,40.2,28.2,29.97,SW,234,6.2,8.1,62,0.00,FEW,,0.00,548.0,WeatherDisplay:10.37,2013-02-14 15:51:00,
2013-02-14 10:56:00,40.2,28.2,29.97,SW,231,2.2,4.6,62,0.00,FEW,,0.00,552.0,WeatherDisplay:10.37,2013-02-14 15:56:00,
2013-02-14 11:01:00,40.6,29.0,29.97,South,170,2.7,4.6,63,0.00,FEW,,0.00,548.0,WeatherDisplay:10.37,2013-02-14 16:01:00,
2013-02-14 11:06:00,41.2,29.5,29.97,WNW,298,1.7,5.8,63,0.00,FEW,,0.00,561.0,WeatherDisplay:10.37,2013-02-14 16:06:00,
2013-02-14 11:11:00,41.1,27.9,29.97,WSW,239,8.7,10.4,59,0.00,FEW,,0.00,571.0,WeatherDisplay:10.37,2013-02-14 16:11:00,
2013-02-14 11:16:00,41.1,29.8,29.97,WNW,298,2.0,6.0,64,0.00,FEW,,0.00,575.0,WeatherDisplay:10.37,2013-02-14 16:16:00,
2013-02-14 11:21:00,41.5,30.2,29.97,WSW,244,0.7,5.8,64,0.00,FEW,,0.00,580.0,WeatherDisplay:10.37,2013-02-14 16:21:00,
2013-02-14 11:26:00,41.6,29.9,29.97,SW,231,4.3,9.0,63,0.00,FEW,,0.00,585.0,WeatherDisplay:10.37,2013-02-14 16:26:00,
2013-02-14 11:31:00,41.6,29.1,29.97,West,261,0.1,1.5,61,0.00,FEW,,0.00,589.0,WeatherDisplay:10.37,2013-02-14 16:31:00,
2013-02-14 11:36:00,42.1,30.0,29.97,SW,231,6.3,10.4,62,0.00,FEW,,0.00,592.0,WeatherDisplay:10.37,2013-02-14 16:36:00,
2013-02-14 11:41:00,42.1,30.0,29.97,West,259,0.5,4.5,62,0.00,FEW,,0.00,598.0,WeatherDisplay:10.37,2013-02-14 16:41:00,
2013-02-14 11:46:00,42.5,30.0,29.97,SW,217,4.3,8.1,61,0.00,FEW,,0.00,601.0,WeatherDisplay:10.37,2013-02-14 16:46:00,
2013-02-14 11:51:00,42.5,30.4,29.97,WSW,256,5.9,8.1,62,0.00,FEW,,0.00,601.0,WeatherDisplay:10.37,2013-02-14 16:51:00,
2013-02-14 11:56:00,42.6,29.7,29.97,WSW,247,4.5,9.2,60,0.00,FEW,,0.00,601.0,WeatherDisplay:10.37,2013-02-14 16:56:00,
2013-02-14 12:01:00,42.6,30.1,29.97,WSW,252,3.1,8.1,61,0.00,FEW,,0.00,605.0,WeatherDisplay:10.37,2013-02-14 17:01:00,
2013-02-14 12:06:00,42.8,29.0,29.96,NNE,32,0.5,3.0,58,0.00,FEW,,0.00,612.0,WeatherDisplay:10.37,2013-02-14 17:06:00,
2013-02-14 12:11:00,43.1,30.6,29.96,West,259,7.5,8.1,61,0.00,FEW,,0.00,608.0,WeatherDisplay:10.37,2013-02-14 17:11:00,
2013-02-14 12:16:00,43.1,29.7,29.96,West,264,2.9,4.6,59,0.00,FEW,,0.00,615.0,WeatherDisplay:10.37,2013-02-14 17:16:00,
2013-02-14 12:21:00,43.2,29.8,29.96,West,270,9.0,15.0,59,0.00,CLR,,0.00,615.0,WeatherDisplay:10.37,2013-02-14 17:21:00,
2013-02-14 12:26:00,43.6,31.4,29.96,WSW,255,7.8,9.2,62,0.00,CLR,,0.00,613.0,WeatherDisplay:10.37,2013-02-14 17:26:00,
2013-02-14 12:31:00,43.6,29.8,29.96,NW,311,4.1,8.1,58,0.00,CLR,,0.00,613.0,WeatherDisplay:10.37,2013-02-14 17:31:00,
2013-02-14 12:36:00,43.8,30.8,29.96,SSW,193,0.0,4.6,60,0.00,CLR,,0.00,605.0,WeatherDisplay:10.37,2013-02-14 17:36:00,
2013-02-14 12:41:00,44.5,31.1,29.95,SW,219,5.5,11.5,59,0.00,CLR,,0.00,608.0,WeatherDisplay:10.37,2013-02-14 17:41:00,
2013-02-14 12:46:00,44.8,30.0,29.96,WNW,302,9.7,15.0,56,0.00,CLR,,0.00,612.0,WeatherDisplay:10.37,2013-02-14 17:46:00,
2013-02-14 12:51:00,44.8,30.9,29.96,WSW,254,5.9,8.1,58,0.00,CLR,,0.00,615.0,WeatherDisplay:10.37,2013-02-14 17:51:00,
2013-02-14 12:56:00,44.9,29.7,29.95,SW,235,7.2,10.4,55,0.00,CLR,,0.00,621.0,WeatherDisplay:10.37,2013-02-14 17:56:00,
2013-02-14 13:01:00,44.6,29.9,29.95,SW,232,3.1,15.0,56,0.00,CLR,,0.00,624.0,WeatherDisplay:10.37,2013-02-14 18:01:00,
2013-02-14 13:06:00,44.8,30.5,29.95,WSW,245,14.0,16.1,57,0.00,CLR,,0.00,612.0,WeatherDisplay:10.37,2013-02-14 18:06:00,
2013-02-14 13:11:00,45.1,30.8,29.94,SW,227,9.1,10.5,57,0.00,CLR,,0.00,603.0,WeatherDisplay:10.37,2013-02-14 18:11:00,
2013-02-14 13:16:00,45.4,30.2,29.95,SW,231,6.7,9.2,55,0.00,CLR,,0.00,612.0,WeatherDisplay:10.37,2013-02-14 18:16:00,
2013-02-14 13:21:00,45.5,30.3,29.94,SSW,194,9.3,13.8,55,0.00,CLR,,0.00,589.0,WeatherDisplay:10.37,2013-02-14 18:21:00,
2013-02-14 13:27:00,45.7,30.4,29.94,SSW,200,8.1,10.4,55,0.00,CLR,,0.00,578.0,WeatherDisplay:10.37,2013-02-14 18:27:00,
2013-02-14 13:32:00,45.8,30.1,29.94,West,265,3.7,5.8,54,0.00,CLR,,0.00,573.0,WeatherDisplay:10.37,2013-02-14 18:32:00,
2013-02-14 13:37:00,46.1,30.4,29.94,West,267,0.2,3.0,54,0.00,CLR,,0.00,543.0,WeatherDisplay:10.37,2013-02-14 18:37:00,
2013-02-14 13:42:00,46.5,30.3,29.93,WSW,254,5.9,8.1,53,0.00,CLR,,0.00,584.0,WeatherDisplay:10.37,2013-02-14 18:42:00,
2013-02-14 13:47:00,46.8,30.6,29.93,West,263,6.3,9.2,53,0.00,CLR,,0.00,557.0,WeatherDisplay:10.37,2013-02-14 18:47:00,
2013-02-14 13:52:00,47.0,30.3,29.93,West,263,3.2,4.6,52,0.00,CLR,,0.00,559.0,WeatherDisplay:10.37,2013-02-14 18:52:00,
2013-02-14 13:57:00,46.8,29.1,29.92,NW,309,4.7,5.8,50,0.00,CLR,,0.00,130.0,WeatherDisplay:10.37,2013-02-14 18:57:00,
2013-02-14 14:02:00,47.1,30.8,29.92,West,265,4.3,6.0,53,0.00,FEW,,0.00,529.0,WeatherDisplay:10.37,2013-02-14 19:02:00,
2013-02-14 14:07:00,48.0,30.7,29.92,WSW,255,3.9,8.1,51,0.00,FEW,,0.00,522.0,WeatherDisplay:10.37,2013-02-14 19:07:00,
2013-02-14 14:12:00,48.2,29.9,29.92,SW,233,1.7,6.0,49,0.00,FEW,,0.00,554.0,WeatherDisplay:10.37,2013-02-14 19:12:00,
2013-02-14 14:17:00,48.0,29.7,29.92,WNW,300,8.4,9.2,49,0.00,FEW,,0.00,522.0,WeatherDisplay:10.37,2013-02-14 19:17:00,
2013-02-14 14:22:00,47.9,30.6,29.91,SW,222,9.1,10.4,51,0.00,FEW,,0.00,494.0,WeatherDisplay:10.37,2013-02-14 19:22:00,
2013-02-14 14:27:00,47.9,30.1,29.91,SE,146,6.8,8.1,50,0.00,FEW,,0.00,499.0,WeatherDisplay:10.37,2013-02-14 19:27:00,
2013-02-14 14:32:00,48.0,31.2,29.91,SE,146,0.1,1.5,52,0.00,FEW,,0.00,503.0,WeatherDisplay:10.37,2013-02-14 19:32:00,
2013-02-14 14:37:00,48.6,30.8,29.91,WSW,245,9.7,23.0,50,0.00,FEW,,0.00,448.0,WeatherDisplay:10.37,2013-02-14 19:37:00,
2013-02-14 14:42:00,48.5,29.7,29.91,WNW,302,4.2,4.6,48,0.00,FEW,,0.00,487.0,WeatherDisplay:10.37,2013-02-14 19:42:00,
2013-02-14 14:47:00,48.0,30.2,29.91,WNW,298,4.4,6.0,50,0.00,FEW,,0.00,494.0,WeatherDisplay:10.37,2013-02-14 19:47:00,
2013-02-14 14:52:00,48.5,31.2,29.91,West,267,1.6,5.8,51,0.00,FEW,,0.00,499.0,WeatherDisplay:10.37,2013-02-14 19:52:00,
2013-02-14 14:57:00,49.2,30.3,29.91,WSW,244,8.7,10.4,48,0.00,FEW,,0.00,504.0,WeatherDisplay:10.37,2013-02-14 19:57:00,
2013-02-14 15:02:00,49.5,30.1,29.92,WNW,300,5.4,6.0,47,0.00,SCT,,0.00,475.0,WeatherDisplay:10.37,2013-02-14 20:02:00,
2013-02-14 15:07:00,49.1,29.2,29.92,SW,228,4.4,5.8,46,0.00,SCT,,0.00,446.0,WeatherDisplay:10.37,2013-02-14 20:07:00,
2013-02-14 15:12:00,49.1,29.2,29.92,West,259,6.9,13.8,46,0.00,SCT,,0.00,432.0,WeatherDisplay:10.37,2013-02-14 20:12:00,
2013-02-14 15:17:00,49.4,28.9,29.92,SW,227,6.3,8.1,45,0.00,SCT,,0.00,424.0,WeatherDisplay:10.37,2013-02-14 20:17:00,
2013-02-14 15:22:00,49.6,30.2,29.92,SW,227,7.0,9.2,47,0.00,SCT,,0.00,427.0,WeatherDisplay:10.37,2013-02-14 20:22:00,
2013-02-14 15:27:00,48.5,28.1,29.92,SW,215,11.6,13.5,45,0.00,SCT,,0.00,132.0,WeatherDisplay:10.37,2013-02-14 20:27:00,
2013-02-14 15:32:00,47.6,28.3,29.92,SW,228,6.9,11.5,47,0.00,SCT,,0.00,397.0,WeatherDisplay:10.37,2013-02-14 20:32:00,
2013-02-14 15:37:00,48.2,28.9,29.92,WSW,239,8.6,9.2,47,0.00,SCT,,0.00,403.0,WeatherDisplay:10.37,2013-02-14 20:37:00,
2013-02-14 15:42:00,48.5,29.2,29.92,SW,228,5.7,8.1,47,0.00,SCT,,0.00,193.0,WeatherDisplay:10.37,2013-02-14 20:42:00,
2013-02-14 15:47:00,48.5,28.6,29.92,WSW,238,12.2,13.8,46,0.00,SCT,,0.00,360.0,WeatherDisplay:10.37,2013-02-14 20:47:00,
2013-02-14 15:52:00,48.2,29.4,29.92,SW,234,7.1,9.2,48,0.00,SCT,,0.00,144.0,WeatherDisplay:10.37,2013-02-14 20:52:00,
2013-02-14 15:57:00,47.3,28.1,29.92,SW,234,6.3,9.2,47,0.00,SCT,,0.00,111.0,WeatherDisplay:10.37,2013-02-14 20:57:00,
2013-02-14 16:02:00,47.0,28.8,29.92,SW,229,4.4,8.1,49,0.00,SCT,,0.00,118.0,WeatherDisplay:10.37,2013-02-14 21:02:00,
2013-02-14 16:07:00,47.1,28.9,29.92,South,190,2.8,4.6,49,0.00,SCT,,0.00,285.0,WeatherDisplay:10.37,2013-02-14 21:07:00,
2013-02-14 16:12:00,47.7,28.9,29.92,SSE,153,9.5,10.5,48,0.00,FEW,,0.00,243.0,WeatherDisplay:10.37,2013-02-14 21:12:00,
2013-02-14 16:17:00,47.6,28.9,29.92,SSE,149,3.2,8.1,48,0.00,FEW,,0.00,236.0,WeatherDisplay:10.37,2013-02-14 21:17:00,
2013-02-14 16:22:00,47.6,29.9,29.91,SW,229,2.6,6.0,50,0.00,FEW,,0.00,197.0,WeatherDisplay:10.37,2013-02-14 21:22:00,
2013-02-14 16:27:00,47.7,30.0,29.92,SW,224,3.3,5.8,50,0.00,FEW,,0.00,169.0,WeatherDisplay:10.37,2013-02-14 21:27:00,
2013-02-14 16:32:00,47.9,30.1,29.91,SW,224,0.6,3.0,50,0.00,FEW,,0.00,137.0,WeatherDisplay:10.37,2013-02-14 21:32:00,
2013-02-14 16:37:00,47.9,29.1,29.91,SSE,150,5.8,8.1,48,0.00,FEW,,0.00,125.0,WeatherDisplay:10.37,2013-02-14 21:37:00,
2013-02-14 16:42:00,47.7,30.0,29.91,SSE,149,0.0,1.1,50,0.00,FEW,,0.00,114.0,WeatherDisplay:10.37,2013-02-14 21:42:00,
2013-02-14 16:47:00,47.7,30.0,29.91,SSE,149,0.0,0.0,50,0.00,FEW,,0.00,104.0,WeatherDisplay:10.37,2013-02-14 21:47:00,
2013-02-14 16:52:00,48.0,29.7,29.91,SSE,149,0.0,0.0,49,0.00,FEW,,0.00,88.0,WeatherDisplay:10.37,2013-02-14 21:52:00,
2013-02-14 16:57:00,47.9,29.6,29.91,SSE,148,4.3,7.5,49,0.00,FEW,,0.00,72.0,WeatherDisplay:10.37,2013-02-14 21:57:00,
2013-02-14 17:02:00,47.4,28.2,29.91,SE,144,4.5,8.1,47,0.00,FEW,,0.00,56.0,WeatherDisplay:10.37,2013-02-14 22:02:00,
2013-02-14 17:07:00,47.1,27.9,29.91,South,170,4.4,6.0,47,0.00,FEW,,0.00,28.0,WeatherDisplay:10.37,2013-02-14 22:07:00,
2013-02-14 17:12:00,46.7,28.0,29.91,SSE,167,2.7,6.0,48,0.00,FEW,,0.00,26.0,WeatherDisplay:10.37,2013-02-14 22:12:00,
2013-02-14 17:17:00,46.4,27.8,29.91,SSW,198,1.8,4.5,48,0.00,FEW,,0.00,23.0,WeatherDisplay:10.37,2013-02-14 22:17:00,
2013-02-14 17:22:00,46.1,27.5,29.91,WSW,244,3.5,9.2,48,0.00,FEW,,0.00,18.0,WeatherDisplay:10.37,2013-02-14 22:22:00,
2013-02-14 17:27:00,45.8,27.7,29.92,WSW,245,0.9,4.6,49,0.00,FEW,,0.00,12.0,WeatherDisplay:10.37,2013-02-14 22:27:00,
2013-02-14 17:32:00,45.4,27.8,29.92,South,169,2.7,6.0,50,0.00,FEW,,0.00,11.0,WeatherDisplay:10.37,2013-02-14 22:32:00,
2013-02-14 17:37:00,45.1,27.6,29.92,South,169,2.9,5.8,50,0.00,FEW,,0.00,9.0,WeatherDisplay:10.37,2013-02-14 22:37:00,
2013-02-14 17:42:00,44.8,27.8,29.92,South,169,1.6,3.5,51,0.00,FEW,,0.00,5.0,WeatherDisplay:10.37,2013-02-14 22:42:00,
2013-02-14 17:47:00,44.1,28.0,29.93,SSE,168,5.8,6.0,53,0.00,FEW,,0.00,0.0,WeatherDisplay:10.37,2013-02-14 22:47:00,
2013-02-14 17:52:00,43.8,28.2,29.93,SSE,167,2.5,6.0,54,0.00,FEW,,0.00,0.0,WeatherDisplay:10.37,2013-02-14 22:52:00,
2013-02-14 17:57:00,43.5,27.9,29.92,SSE,166,1.2,8.1,54,0.00,FEW,,0.00,0.0,WeatherDisplay:10.37,2013-02-14 22:57:00,
2013-02-14 18:02:00,43.1,28.0,29.93,SSE,166,2.0,4.6,55,0.00,FEW,,0.00,0.0,WeatherDisplay:10.37,2013-02-14 23:02:00,
2013-02-14 18:07:00,42.6,27.5,29.93,SSE,166,0.2,1.1,55,0.00,FEW,,0.00,0.0,WeatherDisplay:10.37,2013-02-14 23:07:00,
2013-02-14 18:12:00,42.3,27.7,29.93,SSE,166,0.0,0.0,56,0.00,FEW,,0.00,0.0,WeatherDisplay:10.37,2013-02-14 23:12:00,
2013-02-14 18:17:00,42.1,27.5,29.93,SSE,166,0.0,0.0,56,0.00,FEW,,0.00,0.0,WeatherDisplay:10.37,2013-02-14 23:17:00,
2013-02-14 18:22:00,41.8,27.2,29.93,SSE,166,0.0,0.0,56,0.00,FEW,,0.00,0.0,WeatherDisplay:10.37,2013-02-14 23:22:00,
2013-02-14 18:27:00,41.5,27.4,29.93,SSE,166,0.0,0.0,57,0.00,FEW,,0.00,0.0,WeatherDisplay:10.37,2013-02-14 23:27:00,
2013-02-14 18:32:00,41.1,27.4,29.94,SSE,166,0.0,0.0,58,0.00,FEW,,0.00,0.0,WeatherDisplay:10.37,2013-02-14 23:32:00,
2013-02-14 18:37:00,40.5,26.9,29.94,SSE,166,0.0,0.0,58,0.00,FEW,,0.00,0.0,WeatherDisplay:10.37,2013-02-14 23:37:00,
2013-02-14 18:42:00,39.9,26.7,29.94,SSE,166,0.0,0.0,59,0.00,FEW,,0.00,0.0,WeatherDisplay:10.37,2013-02-14 23:42:00,
2013-02-14 18:47:00,39.6,26.8,29.94,SSE,166,0.0,0.0,60,0.00,FEW,,0.00,0.0,WeatherDisplay:10.37,2013-02-14 23:47:00,
2013-02-14 18:52:00,39.8,27.0,29.94,SSE,166,0.0,0.0,60,0.00,FEW,,0.00,0.0,WeatherDisplay:10.37,2013-02-14 23:52:00,
2013-02-14 18:57:00,39.9,27.1,29.94,SSE,166,0.0,0.0,60,0.00,FEW,,0.00,0.0,WeatherDisplay:10.37,2013-02-14 23:57:00,
2013-02-14 19:02:00,39.9,27.1,29.95,SSE,166,0.0,0.0,60,0.00,CLR,,0.00,0.0,WeatherDisplay:10.37,2013-02-15 00:02:00,
2013-02-14 19:07:00,39.5,27.2,29.95,SSE,166,0.0,0.0,61,0.00,CLR,,0.00,0.0,WeatherDisplay:10.37,2013-02-15 00:07:00,
2013-02-14 19:12:00,39.1,27.2,29.95,SSE,166,0.0,0.0,62,0.00,CLR,,0.00,0.0,WeatherDisplay:10.37,2013-02-15 00:12:00,
2013-02-14 19:17:00,38.6,26.7,29.95,SSE,166,0.0,0.0,62,0.00,CLR,,0.00,0.0,WeatherDisplay:10.37,2013-02-15 00:17:00,
2013-02-14 19:22:00,38.2,26.3,29.95,SSE,166,0.0,0.0,62,0.00,CLR,,0.00,0.0,WeatherDisplay:10.37,2013-02-15 00:22:00,
2013-02-14 19:27:00,37.6,26.1,29.96,SSE,166,0.0,0.0,63,0.00,CLR,,0.00,0.0,WeatherDisplay:10.37,2013-02-15 00:27:00,
2013-02-14 19:32:00,37.0,26.3,29.96,SSE,166,0.0,0.0,65,0.00,CLR,,0.00,0.0,WeatherDisplay:10.37,2013-02-15 00:32:00,
2013-02-14 19:47:00,35.8,26.3,29.96,SSE,166,0.0,0.0,68,0.00,CLR,,0.00,0.0,WeatherDisplay:10.37,2013-02-15 00:47:00,
2013-02-14 19:52:00,35.3,25.8,29.96,SSE,166,0.0,0.0,68,0.00,CLR,,0.00,0.0,WeatherDisplay:10.37,2013-02-15 00:52:00,
2013-02-14 19:57:00,35.0,25.5,29.96,SSE,166,0.0,0.0,68,0.00,CLR,,0.00,0.0,WeatherDisplay:10.37,2013-02-15 00:57:00,
2013-02-14 20:02:00,34.6,25.5,29.95,SSE,166,0.0,0.0,69,0.00,CLR,,0.00,0.0,WeatherDisplay:10.37,2013-02-15 01:02:00,
2013-02-14 20:07:00,34.6,25.8,29.95,SSE,166,0.0,0.0,70,0.00,CLR,,0.00,0.0,WeatherDisplay:10.37,2013-02-15 01:07:00,
2013-02-14 20:12:00,34.6,25.8,29.95,SSE,166,0.0,0.0,70,0.00,CLR,,0.00,0.0,WeatherDisplay:10.37,2013-02-15 01:12:00,
2013-02-14 20:17:00,34.7,26.3,29.94,SSE,166,0.0,0.0,71,0.00,CLR,,0.00,0.0,WeatherDisplay:10.37,2013-02-15 01:17:00,
2013-02-14 20:22:00,34.9,26.1,29.94,SSE,166,0.0,0.0,70,0.00,CLR,,0.00,0.0,WeatherDisplay:10.37,2013-02-15 01:22:00,
2013-02-14 20:27:00,34.7,25.9,29.94,SSE,166,0.0,0.0,70,0.00,CLR,,0.00,0.0,WeatherDisplay:10.37,2013-02-15 01:27:00,
2013-02-14 20:32:00,34.6,25.8,29.94,SSE,166,0.0,0.0,70,0.00,CLR,,0.00,0.0,WeatherDisplay:10.37,2013-02-15 01:32:00,
2013-02-14 20:37:00,34.3,25.5,29.94,SSE,166,0.0,0.0,70,0.00,CLR,,0.00,0.0,WeatherDisplay:10.37,2013-02-15 01:37:00,
2013-02-14 20:42:00,34.1,25.3,29.95,SSE,166,0.0,0.0,70,0.00,CLR,,0.00,0.0,WeatherDisplay:10.37,2013-02-15 01:42:00,
2013-02-14 20:47:00,33.8,25.4,29.94,SSE,166,0.0,0.0,71,0.00,CLR,,0.00,0.0,WeatherDisplay:10.37,2013-02-15 01:47:00,
2013-02-14 20:52:00,33.5,25.1,29.94,SSE,166,0.0,0.0,71,0.00,CLR,,0.00,0.0,WeatherDisplay:10.37,2013-02-15 01:52:00,
2013-02-14 20:57:00,33.7,25.6,29.94,SSE,166,0.0,0.0,72,0.00,CLR,,0.00,0.0,WeatherDisplay:10.37,2013-02-15 01:57:00,
2013-02-14 21:02:00,33.5,25.8,29.94,SSE,166,0.0,0.0,73,0.00,CLR,,0.00,0.0,WeatherDisplay:10.37,2013-02-15 02:02:00,
2013-02-14 21:07:00,33.5,25.8,29.94,SSE,166,0.0,0.0,73,0.00,CLR,,0.00,0.0,WeatherDisplay:10.37,2013-02-15 02:07:00,
2013-02-14 21:12:00,33.2,25.5,29.94,SSE,166,0.0,0.0,73,0.00,CLR,,0.00,0.0,WeatherDisplay:10.37,2013-02-15 02:12:00,
2013-02-14 21:17:00,32.9,25.2,29.94,SSE,166,0.0,0.0,73,0.00,CLR,,0.00,0.0,WeatherDisplay:10.37,2013-02-15 02:17:00,
2013-02-14 21:22:00,32.5,24.8,29.95,SSE,166,0.0,0.0,73,0.00,CLR,,0.00,0.0,WeatherDisplay:10.37,2013-02-15 02:22:00,
2013-02-14 21:27:00,32.2,24.8,29.95,SSE,166,0.0,0.0,74,0.00,CLR,,0.00,0.0,WeatherDisplay:10.37,2013-02-15 02:27:00,
2013-02-14 21:32:00,31.9,24.9,29.94,SSE,166,0.0,0.0,75,0.00,CLR,,0.00,0.0,WeatherDisplay:10.37,2013-02-15 02:32:00,
2013-02-14 21:37:00,31.8,25.1,29.94,SSE,166,0.0,0.0,76,0.00,CLR,,0.00,0.0,WeatherDisplay:10.37,2013-02-15 02:37:00,
2013-02-14 21:42:00,31.5,24.5,29.94,SSE,166,0.0,0.0,75,0.00,CLR,,0.00,0.0,WeatherDisplay:10.37,2013-02-15 02:42:00,
2013-02-14 21:47:00,31.0,24.3,29.94,SSE,166,0.0,0.0,76,0.00,CLR,,0.00,0.0,WeatherDisplay:10.37,2013-02-15 02:47:00,
2013-02-14 21:52:00,30.7,24.3,29.94,SSE,166,0.0,0.0,77,0.00,CLR,,0.00,0.0,WeatherDisplay:10.37,2013-02-15 02:52:00,
2013-02-14 21:57:00,30.6,24.2,29.94,SSE,166,0.0,0.0,77,0.00,CLR,,0.00,0.0,WeatherDisplay:10.37,2013-02-15 02:57:00,
2013-02-14 22:02:00,30.3,24.0,29.94,SSE,166,0.0,0.0,77,0.00,CLR,,0.00,0.0,WeatherDisplay:10.37,2013-02-15 03:02:00,
2013-02-14 22:07:00,30.1,23.8,29.94,SSE,166,0.0,0.0,77,0.00,CLR,,0.00,0.0,WeatherDisplay:10.37,2013-02-15 03:07:00,
2013-02-14 22:12:00,30.0,24.0,29.94,SSE,166,0.0,0.0,78,0.00,CLR,,0.00,0.0,WeatherDisplay:10.37,2013-02-15 03:12:00,
2013-02-14 22:17:00,29.7,23.7,29.94,SSE,166,0.0,0.0,78,0.00,CLR,,0.00,0.0,WeatherDisplay:10.37,2013-02-15 03:17:00,
2013-02-14 22:22:00,29.4,23.7,29.94,SSE,166,0.0,0.0,79,0.00,CLR,,0.00,0.0,WeatherDisplay:10.37,2013-02-15 03:22:00,
2013-02-14 22:27:00,29.3,23.6,29.94,SSE,166,0.0,0.0,79,0.00,CLR,,0.00,0.0,WeatherDisplay:10.37,2013-02-15 03:27:00,
2013-02-14 22:32:00,29.1,23.7,29.94,SSE,166,0.0,0.0,80,0.00,CLR,,0.00,0.0,WeatherDisplay:10.37,2013-02-15 03:32:00,
2013-02-14 22:37:00,29.0,23.6,29.94,SSE,166,0.0,0.0,80,0.00,CLR,,0.00,0.0,WeatherDisplay:10.37,2013-02-15 03:37:00,
2013-02-14 22:42:00,28.7,23.3,29.94,SSE,166,0.0,0.0,80,0.00,CLR,,0.00,0.0,WeatherDisplay:10.37,2013-02-15 03:42:00,
2013-02-14 22:47:00,28.5,23.1,29.93,SSE,166,0.0,0.0,80,0.00,CLR,,0.00,0.0,WeatherDisplay:10.37,2013-02-15 03:47:00,
2013-02-14 22:52:00,28.4,23.0,29.93,SSE,166,0.0,0.0,80,0.00,CLR,,0.00,0.0,WeatherDisplay:10.37,2013-02-15 03:52:00,
2013-02-14 22:57:00,28.2,23.1,29.93,SSE,166,0.0,0.0,81,0.00,CLR,,0.00,0.0,WeatherDisplay:10.37,2013-02-15 03:57:00,
2013-02-14 23:02:00,28.2,23.1,29.93,SSE,166,0.0,0.0,81,0.00,CLR,,0.00,0.0,WeatherDisplay:10.37,2013-02-15 04:02:00,
2013-02-14 23:07:00,28.1,23.0,29.93,SSE,166,0.0,0.0,81,0.00,CLR,,0.00,0.0,WeatherDisplay:10.37,2013-02-15 04:07:00,
2013-02-14 23:12:00,27.9,22.8,29.93,SSE,166,0.0,0.0,81,0.00,CLR,,0.00,0.0,WeatherDisplay:10.37,2013-02-15 04:12:00,
2013-02-14 23:17:00,27.8,23.0,29.93,SSE,166,0.0,0.0,82,0.00,CLR,,0.00,0.0,WeatherDisplay:10.37,2013-02-15 04:17:00,
2013-02-14 23:22:00,27.8,23.0,29.94,SSE,166,0.0,0.0,82,0.00,CLR,,0.00,0.0,WeatherDisplay:10.37,2013-02-15 04:22:00,
2013-02-14 23:27:00,27.6,22.8,29.94,SSE,166,0.0,0.0,82,0.00,CLR,,0.00,0.0,WeatherDisplay:10.37,2013-02-15 04:27:00,
2013-02-14 23:32:00,27.6,23.1,29.94,SSE,166,0.0,0.0,83,0.00,CLR,,0.00,0.0,WeatherDisplay:10.37,2013-02-15 04:32:00,
2013-02-14 23:37:00,27.8,23.3,29.94,SSE,166,0.0,0.0,83,0.00,CLR,,0.00,0.0,WeatherDisplay:10.37,2013-02-15 04:37:00,
2013-02-14 23:42:00,28.2,23.7,29.94,SSE,166,0.0,0.0,83,0.00,CLR,,0.00,0.0,WeatherDisplay:10.37,2013-02-15 04:42:00,
2013-02-14 23:47:00,28.1,23.6,29.94,SSE,166,0.0,0.0,83,0.00,CLR,,0.00,0.0,WeatherDisplay:10.37,2013-02-15 04:47:00,
2013-02-14 23:52:00,27.9,23.4,29.94,SSE,166,0.0,0.0,83,0.00,CLR,,0.00,0.0,WeatherDisplay:10.37,2013-02-15 04:52:00,
2013-02-14 23:57:00,27.9,23.4,29.94,SSE,166,0.0,0.0,83,0.00,CLR,,0.00,0.0,WeatherDisplay:10.37,2013-02-15 04:57:00,